Lapse_Rate
5.1 5.2 5.8 6.5 6.0 5.5 5.4 5.1 5.1 5.7 6.1 5.3 5.7 5.3 5.7 6.4 6.3 6.7 7.2 7.3 7.3 7.5 7.5 7.2 7.0 6.7 6.6 6.5 6.3 6.1 5.9 5.9 5.8 5.9 5.9 5.8 5.7 5.4 5.2 5.0 5.1 5.1 5.0 5.0
4.7 4.8 5.9 5.6 5.6 5.5 5.1 4.8 5.3 5.6 6.1 5.2 5.1 4.9 5.7 6.6 7.0 7.2 7.4 7.6 7.4 7.5 7.5 7.0 6.9 6.9 6.7 6.3 6.1 6.1 6.1 5.9 5.8 5.6 5.5 5.3 5.1 5.1 5.2 5.5 5.5 5.2 4.9 5.0
4.6 4.9 5.1 5.4 5.4 5.7 5.2 5.0 5.5 5.3 5.4 5.2 4.8 4.9 5.7 6.0 7.0 7.1 7.4 7.0 6.7 6.7 6.7 6.6 6.3 6.3 6.4 6.3 6.1 5.9 5.9 5.9 5.7 5.4 5.3 5.1 5.2 5.3 5.6 5.6 5.2 5.0 4.9 4.8
4.6 5.0 5.2 5.3 5.4 5.4 5.2 6.0 5.6 5.6 5.0 4.5 4.7 3.0 4.3 5.4 6.3 6.9 6.2 6.4 6.7 6.7 6.9 7.0 7.0 6.8 6.5 6.3 6.1 6.0 5.6 5.4 5.4 5.3 4.9 4.9 4.9 5.0 4.9 4.2 4.3 4.6 4.7 4.7
5.2 5.2 5.2 5.4 5.9 5.7 5.5 5.5 5.7 5.5 5.3 4.7 4.2 4.6 4.8 5.1 5.6 5.6 6.0 6.0 6.4 6.8 7.1 7.0 7.1 6.8 6.4 6.2 6.0 5.8 5.7 5.6 5.5 5.3 5.1 4.9 4.7 4.5 4.0 3.9 4.1 4.2 4.3 4.3
5.3 5.1 5.1 5.7 5.8 5.8 5.6 5.4 5.4 5.4 5.1 3.8 5.2 5.2 4.6 5.8 5.6 5.8 5.8 5.7 6.2 6.2 6.6 6.7 6.7 7.1 6.9 6.5 6.1 5.7 5.5 5.2 5.0 5.1 5.2 5.0 4.6 4.1 3.8 3.7 3.8 3.8 3.8 3.8
4.9 5.2 5.3 5.6 5.6 5.7 5.6 5.3 4.7 4.7 3.5 4.4 5.3 4.8 5.4 6.1 5.7 5.6 5.8 5.8 5.9 6.1 5.8 6.0 6.3 6.5 6.9 6.8 6.6 6.2 5.7 5.3 5.2 5.2 5.0 4.7 4.1 3.7 3.6 3.5 3.4 3.4 3.6 3.6
4.5 4.8 5.7 5.4 5.5 5.6 5.5 5.6 5.6 5.2 4.2 4.6 5.1 4.8 5.8 5.9 5.7 5.2 4.9 5.0 5.0 5.2 5.3 5.6 5.7 6.0 6.0 6.4 6.6 6.5 6.2 5.8 5.0 4.6 4.5 4.5 4.1 3.4 3.4 3.5 3.5 3.5 3.7 3.5
4.8 4.2 5.0 5.2 5.2 5.3 5.5 5.8 5.8 5.7 5.5 4.2 5.4 5.8 6.1 6.2 5.9 5.2 5.3 5.3 5.5 5.4 5.6 6.2 6.2 6.0 6.0 5.9 6.0 6.1 6.0 5.7 5.1 4.3 4.0 4.0 4.1 3.8 3.5 3.3 3.2 3.4 3.2 2.9
4.7 4.7 5.0 5.5 5.6 5.5 5.6 5.9 6.0 6.1 5.4 5.3 5.1 5.6 5.7 5.8 5.8 5.4 5.3 5.3 5.5 6.0 5.8 5.9 6.5 6.2 6.3 6.4 6.4 6.4 6.2 6.0 5.3 4.4 4.1 4.0 3.8 3.6 3.4 3.5 3.6 3.8 3.6 3.1
4.7 4.4 4.3 4.7 5.2 5.7 5.8 5.8 5.8 5.9 6.3 6.1 5.6 5.5 5.2 5.2 4.8 5.0 5.4 5.6 5.5 5.6 5.9 6.2 6.2 6.3 6.0 6.1 6.3 6.5 6.6 6.2 5.7 4.9 4.1 4.0 3.9 3.7 3.4 3.3 3.5 3.7 3.3 3.2
4.7 4.6 4.3 4.4 4.8 5.1 5.2 5.3 5.7 5.9 5.9 5.7 5.3 4.6 4.7 4.7 5.1 4.9 5.0 5.3 5.7 5.9 6.3 6.6 6.9 7.0 6.9 6.6 6.2 6.5 6.3 6.2 5.3 4.9 4.3 3.9 3.7 3.6 3.5 3.4 3.4 3.4 3.4 3.3
4.5 4.5 4.3 4.6 4.6 4.7 4.8 5.1 5.4 5.9 5.5 5.0 5.8 5.0 5.4 5.2 5.0 5.1 4.7 4.9 5.2 5.1 5.5 6.1 6.5 6.8 6.4 6.6 6.2 6.3 6.2 5.9 5.4 5.0 4.4 4.0 3.8 3.5 3.2 3.0 2.9 2.8 2.8 2.8
4.5 4.5 4.4 4.4 5.5 5.8 5.3 5.8 6.0 6.1 5.9 6.1 5.8 6.2 6.3 5.9 5.6 5.7 6.0 5.9 5.3 5.5 5.5 5.9 6.1 6.0 6.2 5.9 6.0 5.8 5.7 5.3 4.6 4.3 4.3 3.9 3.4 3.4 3.1 2.8 2.4 2.3 2.3 2.3
5.7 5.3 5.4 5.3 5.8 6.1 6.0 5.5 6.2 6.6 6.7 6.3 6.1 6.5 6.3 6.1 5.9 5.7 5.5 5.4 5.7 5.9 5.9 5.9 6.1 6.0 5.9 6.0 5.5 5.4 5.2 4.7 4.6 4.1 3.9 4.0 3.6 3.3 3.2 2.6 2.3 2.4 2.5 2.5
6.3 5.8 5.9 5.6 6.6 6.8 6.4 6.2 6.8 6.8 6.8 6.9 6.7 6.5 6.8 6.2 5.6 5.9 6.0 6.1 6.0 6.1 6.2 6.1 6.0 6.0 5.9 5.9 5.6 5.3 4.9 4.9 4.8 4.5 4.2 4.1 3.6 3.3 3.2 2.8 2.5 2.3 2.3 2.2
6.5 6.8 6.9 6.3 6.5 6.9 6.1 7.0 7.3 7.0 7.1 7.3 7.1 6.7 7.2 7.2 6.7 6.7 7.0 6.7 6.5 6.3 6.3 6.3 6.2 6.0 5.9 5.5 5.5 5.3 5.3 5.3 4.7 4.0 3.7 3.5 3.1 3.0 2.9 2.3 2.2 2.5 2.5 2.6
6.8 7.0 7.5 7.3 6.8 6.5 7.2 7.2 7.3 7.3 7.1 7.2 7.3 6.9 6.6 6.6 6.6 6.4 6.4 6.4 6.0 5.8 5.6 5.6 5.5 5.5 5.3 5.1 5.1 5.4 5.1 4.6 3.9 3.5 3.5 3.3 2.9 2.7 2.6 2.6 2.6 2.8 2.9 2.9
7.8 7.2 7.4 7.4 7.4 7.4 7.5 7.2 7.3 7.2 7.3 7.1 7.0 6.7 6.7 6.5 6.5 6.3 6.1 6.0 5.8 5.6 5.2 5.0 4.8 4.7 4.6 4.5 4.5 4.6 4.4 4.0 3.8 3.5 3.3 3.1 2.9 2.8 2.7 2.8 2.9 2.8 2.8 2.9
8.4 7.3 7.5 7.6 7.7 7.7 7.2 7.1 6.8 6.7 6.7 6.7 6.7 6.7 6.8 6.5 6.3 6.2 6.1 5.9 5.7 5.3 4.8 4.6 4.5 4.5 4.3 4.1 3.9 3.9 4.0 3.8 3.8 3.6 3.3 3.1 2.9 2.6 2.7 2.8 3.1 3.3 3.2 3.2
8.1 7.3 7.5 7.4 7.7 7.1 6.4 6.4 6.5 6.5 6.1 6.5 6.6 6.5 6.1 6.0 5.7 5.6 5.7 5.6 5.5 5.1 4.7 4.4 4.1 4.2 4.0 3.8 3.6 3.5 3.5 3.6 3.5 3.3 3.2 3.0 3.0 3.1 3.1 3.2 3.4 3.4 3.0 2.7
7.9 7.7 7.4 7.4 7.5 7.0 6.5 6.3 6.6 6.5 6.5 6.5 6.2 5.9 5.9 5.7 5.5 5.4 5.3 5.4 5.4 5.1 4.8 4.5 4.3 4.2 4.0 3.9 3.8 3.7 3.6 3.5 3.5 3.6 3.5 3.3 3.3 3.5 3.6 3.7 3.6 3.3 3.0 3.2
7.5 7.3 7.4 7.2 7.0 6.8 6.4 6.1 6.1 6.1 6.0 6.0 6.0 5.9 5.7 5.6 5.5 5.4 5.3 5.3 5.3 5.1 4.7 4.5 4.5 4.3 4.1 4.1 4.1 4.1 4.0 3.9 3.9 3.8 3.7 3.7 3.9 4.0 3.8 3.6 3.1 3.0 3.5 3.8
7.3 7.1 6.8 6.5 6.1 6.3 6.0 5.8 5.7 5.7 5.5 5.5 5.6 5.7 5.6 5.5 5.4 5.4 5.2 5.0 5.0 4.9 4.7 4.6 4.5 4.5 4.3 4.2 4.1 4.1 4.1 4.1 4.1 4.2 4.3 4.3 4.2 3.9 3.6 3.4 3.7 3.9 3.9 3.9
6.9 6.7 6.4 6.1 5.6 5.5 5.3 5.5 5.4 5.2 5.1 5.0 5.0 5.3 5.4 5.4 5.3 5.1 5.1 5.0 4.9 4.8 4.7 4.5 4.4 4.3 4.3 4.3 4.3 4.2 4.2 4.3 4.4 4.3 4.1 4.0 3.7 3.5 3.9 4.1 4.2 4.2 4.2 4.1
6.4 6.2 5.7 5.7 5.5 5.3 5.1 5.1 5.1 5.0 5.0 4.9 5.0 4.9 4.8 5.1 5.2 5.1 5.0 4.9 4.8 4.7 4.7 4.7 4.6 4.6 4.6 4.4 4.3 4.2 4.2 4.2 4.1 4.1 4.1 4.2 4.2 4.2 4.2 4.2 4.2 4.3 4.2 4.2
Wind_Speed
1 3 9 14 12 2 2 3 6 4 4 4 12 15 14 8 6 11 13 12 15 18 16 12 14 12 11 11 13 14 13 12 11 9 9 5 4 4 3 8 13 13 14 14
3 7 10 5 4 6 3 5 14 8 5 6 9 13 12 13 10 13 16 14 16 14 6 8 12 14 16 16 16 16 17 16 12 9 7 4 5 2 3 8 11 13 13 13
8 5 5 6 4 5 4 6 7 11 5 5 8 8 5 5 5 7 12 11 9 8 8 8 13 17 15 18 20 18 17 17 14 13 8 7 5 5 3 2 3 7 12 10
6 4 8 5 7 9 5 8 13 6 3 4 3 8 2 5 6 6 10 8 9 9 7 10 14 15 18 17 14 17 18 18 14 15 12 16 10 9 3 3 3 5 11 11
7 5 6 5 7 8 9 5 5 4 4 3 1 2 4 3 5 7 7 9 9 10 8 9 14 16 15 14 15 14 15 16 14 15 12 11 9 4 6 5 6 5 7 11
8 2 4 7 5 8 3 3 3 4 3 4 10 8 2 3 4 4 2 10 12 11 10 4 4 6 8 7 9 11 15 15 15 15 13 12 11 9 8 7 6 4 3 5
2 4 3 2 1 3 3 5 3 3 0 7 1 2 6 5 4 6 8 12 14 12 10 4 6 6 8 10 10 10 13 11 13 13 13 12 12 11 12 10 7 8 4 3
3 5 4 2 4 4 5 7 5 6 3 3 3 5 3 8 8 4 6 8 10 12 10 7 4 5 5 8 10 13 14 10 11 12 12 11 12 7 6 7 7 5 4 4
3 5 3 1 2 0 2 3 1 1 1 1 4 5 3 6 6 11 14 12 11 11 10 7 4 4 6 5 7 9 12 12 11 9 9 9 9 10 9 9 7 4 4 5
1 4 2 3 0 1 4 3 1 2 3 5 3 3 5 6 13 12 14 13 12 10 10 6 2 3 3 6 6 7 9 13 11 11 9 8 9 9 9 8 8 7 5 7
1 3 3 3 2 4 1 2 1 2 4 6 9 5 2 9 8 13 13 12 11 8 8 6 5 3 2 4 6 7 9 12 12 11 10 11 9 9 8 8 8 7 6 6
2 2 5 8 6 3 2 3 3 5 3 1 2 4 9 8 10 13 15 18 20 18 7 5 2 1 3 4 4 7 8 10 9 11 11 10 9 8 7 6 6 6 6 7
4 1 3 5 3 4 3 2 3 2 1 6 4 4 9 17 18 16 15 15 16 18 11 6 5 3 2 4 5 5 6 10 10 11 11 11 10 9 7 6 5 4 5 5
3 5 7 8 3 1 6 5 2 4 5 7 12 15 9 15 14 14 16 18 14 15 8 4 2 2 1 4 5 6 7 9 11 11 12 11 8 8 7 6 6 6 4 4
4 5 6 7 8 4 11 12 11 10 11 9 15 11 6 12 14 13 13 15 18 16 12 4 2 1 3 5 7 8 8 9 11 12 11 9 8 7 8 7 6 5 4 3
4 3 5 7 9 10 13 14 12 11 10 8 4 4 4 7 10 14 14 15 16 17 12 3 2 4 5 7 8 10 10 10 11 11 10 8 8 7 7 5 5 4 3 2
4 3 3 8 2 2 5 6 2 4 5 2 1 2 11 15 13 10 12 13 16 15 8 5 3 4 6 7 10 10 10 10 10 9 8 7 6 7 6 4 3 3 2 1
6 4 3 3 1 4 1 3 3 10 7 5 4 4 6 11 12 3 4 9 11 12 9 7 4 4 5 7 9 9 10 10 9 7 6 6 5 5 4 3 3 2 1 1
11 8 4 3 4 2 3 2 3 2 3 3 6 8 8 8 4 3 4 4 5 6 5 4 4 3 5 6 7 8 8 8 8 7 6 5 5 4 3 3 2 1 0 2
5 9 5 2 3 6 3 2 5 2 2 6 6 7 9 7 5 3 10 7 7 6 4 5 6 6 7 7 7 8 7 7 6 5 5 4 3 3 2 1 1 1 1 2
2 2 11 9 5 2 3 9 3 4 2 9 7 6 6 2 4 6 6 6 5 4 4 4 6 6 5 5 6 7 6 6 5 4 4 3 2 1 2 2 1 2 2 1
5 3 2 2 3 4 14 2 0 3 4 7 8 6 7 5 5 3 3 4 4 5 4 5 5 5 5 4 5 6 5 4 4 3 3 2 1 1 2 2 1 1 1 1
2 3 2 4 3 3 8 10 5 6 7 7 9 12 13 7 3 3 2 2 2 3 2 3 3 4 4 4 3 4 3 3 3 2 1 0 1 1 1 2 1 0 0 1
3 8 3 3 4 4 7 8 10 10 10 12 11 12 12 9 6 3 3 2 1 1 0 1 2 2 2 2 3 3 3 3 2 1 1 1 1 1 1 1 1 0 1 1
3 6 6 4 7 4 2 12 10 12 12 13 14 13 13 12 11 7 3 3 2 1 1 1 1 1 1 2 3 3 3 3 2 1 1 1 1 2 2 2 2 2 3 4
6 4 3 2 4 3 5 9 11 12 13 14 13 13 13 13 12 10 8 4 3 2 1 1 1 1 2 2 3 2 2 3 2 1 1 1 1 2 1 2 3 5 6 7
Wind_Direction
205 129 219 208 206 161 188 216 260 266 234 250 247 258 261 261 224 258 253 234 230 228 239 195 188 178 167 169 166 167 157 161 153 153 149 148 157 144 124 142 140 135 134 128
46 234 246 230 216 246 279 290 275 282 256 199 278 273 254 246 229 234 253 252 238 238 213 185 179 176 181 176 176 174 173 167 167 164 157 132 137 146 120 146 143 141 130 120
183 202 92 163 194 215 226 224 255 253 313 252 312 283 238 282 241 242 254 265 306 271 228 184 185 188 181 184 184 178 173 169 168 162 133 119 105 107 114 146 133 139 130 118
227 251 219 185 226 169 251 224 249 259 34 251 16 296 165 249 276 244 1 341 308 284 231 193 191 191 195 196 181 176 171 170 167 161 160 165 168 161 159 143 130 116 125 123
244 193 191 186 209 157 219 165 175 187 198 343 238 249 256 226 253 24 23 344 329 322 281 220 199 198 194 180 179 175 170 168 163 167 165 164 156 130 129 124 116 110 116 133
244 283 221 212 198 189 110 130 76 62 119 266 202 179 289 121 74 338 15 353 350 346 333 296 150 153 162 159 167 169 170 169 161 167 162 160 148 136 139 141 138 129 119 122
298 224 267 161 186 180 153 86 315 298 177 234 71 162 271 300 63 31 345 348 355 357 349 21 136 144 144 150 157 161 168 168 164 161 157 151 146 149 153 154 152 148 142 138
218 306 180 175 215 198 184 167 177 232 212 254 155 233 242 124 99 102 34 349 339 345 345 8 59 92 129 155 155 166 166 153 156 157 152 145 144 144 143 145 147 146 144 143
184 263 287 294 329 139 157 194 184 274 145 62 213 301 306 156 68 32 18 11 348 341 346 354 42 120 144 149 167 156 149 150 146 142 135 132 133 136 141 134 137 133 124 131
203 286 283 297 39 212 175 177 86 32 282 247 232 252 230 11 10 8 3 0 348 336 332 336 328 173 143 137 131 131 150 147 139 128 129 130 130 129 128 126 127 126 119 112
107 184 282 349 193 194 263 244 222 183 204 256 277 248 77 72 31 351 353 354 345 305 313 315 310 338 57 107 129 130 138 136 133 129 121 122 122 121 123 125 129 131 124 124
197 176 250 227 245 38 0 298 217 227 254 280 324 258 97 73 32 14 353 349 345 344 326 310 300 88 99 88 119 138 135 132 128 123 119 115 114 113 110 111 113 118 121 127
184 235 331 318 24 13 109 113 101 120 213 238 253 263 162 34 17 357 348 343 336 333 327 333 347 2 86 123 116 113 122 121 120 117 114 115 115 112 109 111 114 116 123 119
83 203 196 240 221 86 285 253 191 178 264 277 253 285 301 9 358 346 337 333 327 323 309 296 323 310 76 105 103 110 104 110 115 111 110 107 110 113 109 101 90 84 74 82
196 218 204 247 256 258 261 262 264 251 247 253 285 294 47 358 342 337 335 326 325 326 317 278 232 191 114 99 102 103 105 109 111 105 99 100 102 100 98 99 102 101 96 95
184 258 194 267 235 227 254 266 255 247 262 269 360 279 5 342 337 348 344 338 332 326 318 301 166 135 125 120 117 111 105 102 101 100 102 110 113 108 109 113 110 108 101 79
201 224 201 258 209 81 305 251 172 101 67 52 18 260 333 336 339 350 333 338 336 335 356 11 53 73 104 108 116 113 114 111 99 105 111 112 121 117 116 114 126 124 116 87
237 212 234 242 110 226 48 40 75 100 88 31 360 333 318 304 311 204 301 336 333 349 0 8 22 79 93 104 104 106 100 105 106 108 109 107 111 108 105 114 105 88 55 358
225 237 245 223 187 109 194 44 64 126 132 11 351 337 321 309 346 284 328 327 315 333 346 2 25 43 81 94 98 101 98 102 108 107 98 93 93 104 113 113 104 86 359 314
200 231 232 174 235 220 64 15 11 15 273 11 342 340 325 345 15 276 344 340 338 351 355 20 45 57 60 57 78 89 91 93 91 96 101 102 100 109 125 147 175 174 199 249
196 207 222 224 233 105 323 309 293 136 240 329 334 327 316 312 220 279 328 338 344 343 7 40 53 66 65 66 85 87 87 88 89 87 86 91 93 129 199 194 203 209 227 306
171 202 202 152 208 223 343 81 24 349 326 325 337 320 297 294 287 287 314 337 354 0 24 41 63 59 45 57 93 101 96 93 92 92 96 103 155 239 170 169 241 211 131 298
108 348 64 27 90 61 51 68 22 7 351 346 330 327 316 305 301 308 312 329 350 6 22 45 76 72 52 52 66 89 71 73 63 73 80 58 303 241 105 194 210 262 44 290
37 12 64 169 69 76 72 47 25 4 349 341 336 325 321 337 323 300 270 271 271 296 40 53 64 67 62 54 74 97 96 79 70 29 37 346 339 164 22 345 335 329 295 272
349 338 342 75 15 115 33 31 15 358 359 350 341 353 356 353 351 329 306 283 277 312 287 225 233 199 159 148 136 147 130 111 109 86 339 347 59 23 344 323 267 239 252 223
359 4 9 39 24 294 306 345 6 359 357 347 351 353 354 357 349 344 336 338 304 255 282 291 259 163 189 185 163 136 123 118 115 153 172 285 60 3 354 338 324 309 286 298